Regional Weather Roundup
Issued by NWS

Home | Current Version | Previous Version | Text Only | Print | Product List | Glossary On
Versions: 1 2 3 4 5 6 7 8 9 10 11 12 13 14 15 16 17 18 19 20 21 22 23 24 25 26 27 28 29 30 31 32 33 34 35 36 37 38 39 40 41 42 43 44 45 46 47 48 49 50
000
ASUS43 KDTX 251701
RWRMI
MICHIGAN HOURLY REGIONAL WEATHER ROUNDUP
NATIONAL WEATHER SERVICE DETROIT/PONTIAC MI
1200 PM EST SUN JAN 25 2015

NOTE: "FAIR" INDICATES FEW OR NO CLOUDS BELOW 12,000 FEET WITH NO
SIGNIFICANT WEATHER AND/OR OBSTRUCTION TO VISIBILITY.

MIZ047>049-052>055-059>063-066>070-074>076-081>083-251800-
SOUTHEAST LOWER MICHIGAN

CITY           SKY/WX    TMP DP  RH WIND       PRES   REMARKS
ADRIAN         LGT SNOW  25  20  81 E18G24    29.87S WCI  11
ALMA           CLOUDY    20  13  74 NE14G21   29.96S WCI   6
ANN ARBOR      CLOUDY    25  16  68 E10G18    29.89R WCI  15
BAD AXE        FLURRIES  19  12  73 NE10      29.96S WCI   8
CARO           MOSUNNY   23  11  60 CALM      29.95S
DETROIT CITY   CLOUDY    26  15  63 NE13      29.92R WCI  15
DETROIT        CLOUDY    25  16  68 NE14G21   29.91S WCI  13
FLINT          CLOUDY    24  13  62 NE14      29.93R WCI  12
GROSSE ILE     CLOUDY    25  18  74 NE10      29.90S WCI  15
HILLSDALE      LGT SNOW  25  21  86 E21       29.82S WCI  11
HOWELL         CLOUDY    23  14  70 NE12      29.89S WCI  11

CITY           SKY/WX    TMP DP  RH WIND       PRES   REMARKS
JACKSON        CLOUDY    25  16  68 NE12G18   29.85S WCI  14
LAMBERTVILLE   LGT SNOW  28  21  74 E13G20    29.88F WCI  18
LANSING        CLOUDY    22  14  71 NE15      29.91R WCI   9
LAPEER         PTSUNNY   21  11  66 E9G17     29.93S WCI  11
MASON          CLOUDY    23  15  71 E9        29.89S WCI  13
MONROE         LGT SNOW  27  19  74 E12G18    29.88S WCI  16
MT. CLEMENS    CLOUDY    25  15  66 NE13      29.89S WCI  14
PONTIAC        CLOUDY    22  14  71 NE13      29.89S WCI  10
PORT HOPE        N/A     20  11  68 E16       29.96R WCI   6
PORT HURON     FLURRIES  23  18  80 NE12G17   29.94R WCI  12
TRI CITIES     LGT SNOW  21  13  71 NE17      29.98R WCI   7
TROY           CLOUDY    26  16  64 NE13G21   29.93S WCI  15
SAGINAW HB     PTSUNNY   23  14  68 NE16      29.97R WCI  10
$$
MIZ043>046-050>051-056>058-064>065-071>073-077>080-251800-
SOUTHWEST LOWER MICHIGAN

CITY           SKY/WX    TMP DP  RH WIND       PRES   REMARKS
BATTLE CREEK   FLURRIES  28  18  66 NE9       29.84S WCI  19
BENTON HARBOR  LGT SNOW  27  24  89 NE16      29.81S VSB 1   WCI  15
BIG RAPIDS     SUNNY     19   9  65 E13       29.94S WCI   5
COLDWATER      LGT SNOW  28  24  87 NE16G22   29.82R WCI  15
FREMONT        FAIR      21   5  49 E15       29.92S WCI   8
HOLLAND        CLOUDY    26  16  65 E14G23    29.88R WCI  14
GRAND RAPIDS   PTSUNNY   23  14  68 NE15G23   29.90R WCI  10
IONIA          FAIR      22  15  74 NE17      29.91S WCI   7
KALAMAZOO      LGT SNOW  27  19  72 NE12G18   29.84S WCI  17
LUDINGTON      SUNNY     21   6  53 E12       29.97S WCI   9
MARSHALL       FLURRIES  25  18  73 E8        29.85S WCI  16
MOUNT PLEASANT MOSUNNY   20   9  62 NE13      29.96S WCI   8
MUSKEGON       PTSUNNY   24  11  57 E14       29.92R WCI  12
SOUTH HAVEN    LGT SNOW  28  21  74 E13       29.84R WCI  18
$$
MIZ016>042-251800-
NORTHERN LOWER MICHIGAN

CITY           SKY/WX    TMP DP  RH WIND       PRES   REMARKS
ALPENA         CLOUDY    15   6  67 E6        30.03R WCI   6
BEAVER ISLAND  SUNNY     10  -1  62 CALM      30.07R
BELLAIRE       MOSUNNY   15   2  58 N7        30.03S WCI   5
CADILLAC       SUNNY     13   4  67 NE10      29.93R WCI   0
CHARLEVOIX     SUNNY     12   3  67 E3        30.06S
FRANKFORT      MOSUNNY   16   4  57 NE9       30.01S WCI   5
GAYLORD        MOSUNNY   11   2  67 E6        29.96R WCI   1
GRAYLING       MOSUNNY   13   3  64 NE6       29.97S WCI   4
HARBOR SPRINGS SUNNY     11   2  67 NE3       30.03S
HOUGHTON LAKE  MOSUNNY   14   3  61 NE14      29.95S WCI  -1
MANISTEE       MOSUNNY   18   3  53 E13       29.99S WCI   4
OSCODA         CLOUDY    18  10  70 NE13      30.00S WCI   5
PELLSTON       SUNNY     12   3  67 E8        30.04R WCI   0
ROGERS CITY    FLURRIES  14   8  79 E9        30.04R WCI   1
TRAVERSE CITY  PTSUNNY   13   3  64 NE8       30.02R WCI   2
$$
MIZ007>008-015-251800-
EASTERN UPPER MICHIGAN

CITY           SKY/WX    TMP DP  RH WIND       PRES   REMARKS
KINROSS        SUNNY      7  -4  61 NE8       30.04S WCI  -6
MACKINAC ISLAN SUNNY     10  -1  62 NE6       30.04R WCI   0
NEWBERRY       SUNNY      7   0  72 NE5       30.04R WCI  -2
S. S. MARIE    SUNNY      7  -8  50 CALM      30.03S
MUNISING         N/A     19   9  65 N6        30.07R WCI  11
$$
MIZ004>006-011>014-085-251800-
CENTRAL UPPER MICHIGAN

CITY           SKY/WX    TMP DP  RH WIND       PRES   REMARKS
MANISTIQUE     PTSUNNY   15   7  72 N3        30.06S
ESCANABA       CLOUDY    18   7  62 NE10      30.06S WCI   6
MENOMINEE      CLOUDY    18   7  62 NE13G18   30.06R WCI   4
SAWYER-GWINN   LGT SNOW  16  10  79 NE8       30.02R WCI   5
$$
MIZ001>003-009>011-084-251800-
WESTERN UPPER MICHIGAN

CITY           SKY/WX    TMP DP  RH WIND       PRES   REMARKS
IRON MOUNTAIN  CLOUDY    17   7  64 NE8       30.02R WCI   7
HOUGHTON       CLOUDY    14   4  64 NE8       30.05R WCI   3
COPPER HARBOR    N/A     16   5  62 VRB6      30.10R WCI   7
IRONWOOD       PTSUNNY   16   7  67 E6        30.02R WCI   7
$$

ABBREVIATIONS USED IN REMARKS
   TC - TEMPERATURE IN CELSIUS
  WCI - WIND CHILL INDEX
   HX - HEAT INDEX
  VSB - VISIBILITY



USA.gov is the U.S. government's official web portal to all federal, state and local government web resources and services.